Location: Altavilla Irpina
(41.0000°N, 14.7833°E)
Time: 05:49:06
(UTC+00:00)

PSLV R/B - Pass Details

Date: 19 May 2025
Orbit: 402 x 431 km, 97.7° (Epoch: 14 June)

Event Time Altitude Azimuth Distance (km) Brightness Sun altitude
Exits shadow 20:52:23 42° 278° (W) 612 4.3 -22.5°
Drops below altitude 10° 20:55:11 10° 334° (NNW) 1,513 7.2 -22.8°
Sets 20:57:16 0° 341° (NNW) 2,391 8.4 -23.0°
